Regional Weather Roundup
Issued by NWS Binghamton, NY

Home | Current Version | Previous Version | Text Only | Print | Product List | Glossary On
Versions: 1 2 3 4 5 6 7 8 9 10 11 12 13 14 15 16 17 18 19 20 21 22 23 24 25 26 27 28 29 30 31 32 33 34 35 36 37 38 39 40 41 42 43 44 45 46 47 48
000
ASUS41 KBGM 232010
RWRBGM

REGIONAL WEATHER ROUNDUP
NATIONAL WEATHER SERVICE BINGHAMTON NY
400 PM EDT THU MAR 23 2017

Note: "fair" indicates few or no clouds below 12,000 feet with no
significant weather and/or obstructions to visibility.

* = Station(s) that does not report precipitation, such as rain,
snow, etc, also no thunder or fog.

NYZ009-015>018-022>025-036-037-044>046-055>057-062-232100
...Central New York...

CITY           SKY/WX    TMP DP  RH WIND       PRES   REMARKS
Binghamton     SUNNY     30   1  29 CALM      30.45F
Cortland       FAIR      32   5  32 SW5       30.49F WCI  27
Dansville      SUNNY     41  11  29 VRB5      30.47F
Elmira         SUNNY     39   5  24 SW7       30.47F WCI  34
Seneca Falls   CLEAR     34   9  35 CALM      30.53F
Ithaca         SUNNY     33   5  30 CALM      30.49F
Hamilton       SUNNY     32   3  29 N7        30.48F WCI  26
Monticello     SUNNY     34   1  25 NW13      30.46F WCI  25
Norwich        SUNNY     34   0  23 N7        30.48F WCI  28
Oneonta        SUNNY     30  -4  22 N5        30.43F WCI  25
Penn Yan       SUNNY     34  11  38 E6        30.49F WCI  29
Rome           SUNNY     32  10  40 W12       30.53F WCI  23
Sidney         SUNNY     36   3  25 W6        30.48F WCI  31
Syracuse       MOSUNNY   32   9  38 SW12      30.53F WCI  23
$$

PAZ038>040-043-044-047-048-072-232100
...Northeast Pennsylvania...

CITY           SKY/WX    TMP DP  RH WIND       PRES   REMARKS
Hazleton       SUNNY     37   9  30 W5        30.49F WCI  34
Scranton       SUNNY     36   8  31 N6        30.50F WCI  31
$$
&&
KEY
WCI = Wind Chill Index
VSB = Visibility
HX  = Heat Index
$$



USA.gov is the U.S. government's official web portal to all federal, state and local government web resources and services.